Location: Goodsell Observatory
(44.4617°N, 93.1522°W)
Time: 14:06:54
(UTC-05:00)

Daily predictions for brighter satellites

Satellite Brightness Start Highest point End
(mag) Time Altitude Azimuth Time Altitude Azimuth Time Altitude Azimuth
Cosmos 1503 Rocket 4.4 20:37:16 10° N 20:42:21 46° ENE 20:47:22 10° SE
Helios 1A 3.3 20:38:35 10° SE 20:42:40 49° ENE 20:46:48 10° N
CZ-3B DEB 3.3 20:40:46 10° WNW 20:44:30 21° WSW 20:46:53 10° SSW
Cosmos 1354 Rocket 4.3 20:41:12 10° NNW 20:46:21 50° ENE 20:51:27 10° SE
Cosmos 1697 Rocket 3.7 20:43:16 10° SW 20:48:47 53° WNW 20:54:19 10° NNE
Cosmos 1869 3.4 20:46:52 10° S 20:50:40 51° E 20:54:32 10° NNE
Spot 2 Rocket 3.9 20:47:10 10° S 20:52:14 68° WSW 20:57:20 10° NNW
OAO 3 Rocket 4.5 20:48:49 10° SW 20:52:49 25° S 20:56:38 11° ESE
USA 267 3.7 20:46:33 10° NE 20:53:02 66° NNW 20:59:30 10° WSW
Cosmos 1892 3.9 20:50:15 10° NNW 20:53:53 45° W 20:57:31 10° SSW
Resurs 01 Rocket 2.4 20:49:50 10° S 20:54:12 55° W 20:58:36 10° NNW
GRACE-1 4.0 20:51:45 10° N 20:54:30 75° W 20:57:13 10° S
GRACE-2 4.0 20:52:08 10° N 20:54:53 75° W 20:57:37 10° S
H-2A R/B 4.1 20:55:09 10° ENE 20:55:55 10° NE 20:56:41 10° NE
Cosmos 1400 Rocket 4.4 20:53:07 10° NNW 20:56:44 37° W 21:00:22 10° SSW
CZ-4B DEB 3.0 20:54:40 10° SSE 20:57:36 45° ENE 21:00:33 10° N
YAOGAN 6 3.8 20:56:56 12° SE 20:59:44 26° ENE 21:02:47 10° NNE
Meteor 1-29 3.4 20:57:21 10° NNE 21:00:41 41° E 21:03:58 10° S
Cosmos 2263 Rocket 2.7 20:58:27 10° NNW 21:03:47 44° ENE 21:08:25 13° SE
SPOT 5 4.4 21:04:10 12° ESE 21:07:10 20° ENE 21:10:33 10° NNE
Cosmos 220 Rocket 4.0 21:04:27 10° NNW 21:08:56 84° ENE 21:13:22 10° SSE
Cosmos 2142 Rocket 4.4 21:03:27 10° S 21:09:33 77° E 21:15:44 10° N
Cosmos 1315 Rocket 3.7 21:06:28 10° NNW 21:10:27 51° W 21:14:22 10° S
Cosmos 2322 Rocket 2.3 21:05:04 10° S 21:10:29 54° ESE 21:15:58 10° NE
BREEZE-M DEB (TANK) 4.2 21:06:51 10° W 21:11:26 83° N 21:30:52 10° E
Envisat 3.0 21:07:04 10° SSE 21:12:08 82° ENE 21:17:15 10° NNW
Cosmos 1302 Rocket 4.5 21:08:12 10° SSW 21:13:22 66° WNW 21:18:34 10° NNE
Cosmos 1933 3.9 21:11:37 10° SSE 21:15:19 36° E 21:19:02 10° NNE
Cosmos 2360 Rocket 3.1 21:16:31 10° SSE 21:21:06 26° ESE 21:25:43 10° NE
BREEZE-M DEB (TANK) 3.5 21:18:25 10° W 21:21:36 78° N 21:30:37 10° E
Cosmos 1980 Rocket 3.3 21:16:19 10° SW 21:21:48 49° WNW 21:27:21 10° NNE
Cosmos 1825 2.2 21:19:37 10° N 21:23:27 84° W 21:27:15 10° S
Cosmos 2026 Rocket 4.0 21:20:28 10° N 21:26:46 85° W 21:32:54 10° S
Cosmos 1908 Rocket 4.4 21:22:52 10° N 21:26:47 32° ENE 21:28:49 22° ESE
USA 234 3.4 21:22:54 15° SE 21:28:29 71° SW 21:35:02 10° NW
GENESIS II 4.5 21:25:42 10° SSW 21:29:35 48° ESE 21:33:31 10° NE
Cosmos 1862 3.3 21:33:07 10° N 21:37:09 87° W 21:40:17 16° S
SL-16 R/B 2.2 21:32:31 10° SSW 21:38:11 87° ESE 21:43:53 10° NNE
USA 186 4.3 21:36:23 10° SW 21:38:14 16° W 21:40:09 10° NW
Helios 1B rocket 3.2 21:35:29 10° N 21:39:29 53° WNW 21:43:29 10° SSW
Lacrosse 4 Rocket 2.0 21:37:53 10° NW 21:42:06 54° WSW 21:45:08 18° S
ATLAS 5 CENTAUR R/B 2.6 21:38:00 10° NNW 21:43:53 62° NE 21:47:45 24° ESE
Okean 2 Rocket 4.5 21:40:22 10° NNE 21:43:59 23° ENE 21:44:59 21° E
ERBS 4.1 21:41:25 10° WNW 21:44:20 25° SW 21:46:04 17° S
MetOp-B 4.3 21:42:09 23° SE 21:45:23 57° ENE 21:50:38 10° N
ERS-1 Rocket 2.9 21:42:09 19° SSE 21:45:48 82° ENE 21:50:51 10° NNW
Cosmos 1733 Rocket 3.4 21:43:10 10° NNW 21:47:36 66° W 21:51:22 14° S
Cosmos 1939 Rocket 3.8 21:44:21 10° S 21:48:16 47° W 21:52:09 10° NNW
Intercosmos 25 Rocket 4.1 21:45:36 10° SSW 21:48:42 48° WNW 21:52:39 10° N
Milstar 3 4.2 21:45:44 10° WSW 21:50:49 19° SSW 21:53:09 16° SSE
Cosmos 1655 Rocket 4.4 21:47:32 10° NNW 21:53:53 66° W 22:00:09 10° S
ARGOS 3.4 21:52:58 28° SE 21:55:36 54° ENE 22:00:50 10° N
Cosmos 1862 Rocket 3.8 21:51:10 10° SSW 21:55:37 72° W 22:00:06 10° N
Cosmos 2278 Rocket 4.3 21:53:54 10° N 21:57:10 15° NE 22:00:07 11° ENE
Cosmos 1408 4.5 21:55:07 10° NNW 21:58:21 28° W 22:01:31 10° SSW
SeaSat 1 2.6 21:57:01 31° SE 21:59:15 62° ENE 22:04:08 10° NNW
Meteor 1-26 Rocket 4.2 21:58:32 19° S 22:02:35 65° E 22:08:20 10° NNE
Cosmos 1992 Rocket 4.3 22:00:42 10° SSW 22:05:55 70° WNW 22:11:10 10° NNE
Cosmos 1844 Rocket 3.6 22:02:02 10° N 22:07:04 33° NE 22:09:04 26° E
Abrixas rocket 3.2 22:04:01 10° W 22:07:12 45° N 22:08:39 26° NE
Okean 1-7 3.5 22:07:56 39° ESE 22:08:13 39° E 22:12:20 10° NNE
Terra 3.1 22:10:04 24° E 22:10:51 25° ENE 22:14:45 10° N
SL-08 RB Rocket 3.9 22:09:48 42° SE 22:11:05 57° ENE 22:15:34 10° N
USA 229 DEB 3.9 22:05:04 10° S 22:11:31 47° ESE 22:18:06 10° NE
USA 229 3.9 22:05:10 10° S 22:11:36 47° ESE 22:18:11 10° NE
Atlas Centaur 2 3.8 22:07:38 10° SW 22:13:42 26° SSE 22:14:12 26° SSE
Cosmos 2266 Rocket 3.9 22:08:32 10° N 22:14:49 81° E 22:18:12 30° SSE
YAOGAN 11 4.1 22:13:55 38° S 22:15:34 79° WSW 22:19:56 10° NNW
Cosmos 1703 Rocket 3.5 22:14:11 42° SSE 22:15:35 72° E 22:20:01 10° NNE
Nimbus 7 Rocket 4.4 22:15:27 10° NNE 22:21:20 62° ESE 22:24:01 33° S
Cosmos 2221 Rocket 3.5 22:21:33 56° SE 22:22:08 63° E 22:26:32 10° NNE
MOS 1-B Rocket 3.8 22:22:54 35° SSE 22:25:35 87° ENE 22:31:15 10° NNW
Cosmos 2219 Rocket 3.7 22:28:37 20° ENE 22:28:37 20° ENE 22:31:14 10° NE
CZ-4C R/B 4.0 22:21:41 10° NNW 22:27:44 32° NE 22:32:09 19° E
Cosmos 1867 3.6 22:25:45 10° NW 22:31:13 75° WSW 22:32:46 48° SSE
CARTOSAT-1 4.4 22:32:34 36° ENE 22:32:34 36° ENE 22:36:29 10° N
H-2A R/B 1.9 22:33:27 55° SE 22:34:29 73° ENE 22:39:26 10° N
Meteor 1-14 Rocket 4.4 22:30:22 10° NNW 22:36:00 72° W 22:38:21 36° S
ASTEX 1 3.8 22:43:30 46° E 22:43:37 46° ENE 22:48:23 10° N
Cosmos 2237 4.1 22:42:03 44° S 22:43:51 72° ESE 22:49:34 10° NNE
SPOT 5 3.4 22:43:25 37° SSW 22:44:56 51° W 22:49:31 10° NNW
Cosmos 968 Rocket 4.1 22:40:17 10° NNW 22:45:17 49° WSW 22:46:52 37° SSW
Cosmos 2263 Rocket 3.6 22:42:45 10° NW 22:47:29 29° WSW 22:50:08 20° SW
H-2A R/B 4.3 21:22:23 10° WSW 22:48:04 40° SSW 22:51:40 33° SSE
Cosmos 1553 Rocket 4.4 22:48:00 41° E 22:48:25 41° E 22:54:13 10° NNE
Geosat 4.2 22:46:12 10° NE 22:50:29 51° E 22:50:29 51° E
Meteor 1-25 Rocket 4.3 22:46:03 10° NNW 22:51:39 72° W 22:53:06 49° SSW
COSMOS 2428 2.6 22:52:08 62° SE 22:52:38 65° ESE 22:58:18 10° NNE
Cosmos 2322 Rocket 4.3 22:50:10 10° WSW 22:54:51 27° NW 22:59:36 10° N
H-2A R/B 2.1 23:01:06 72° N 23:01:06 72° N 23:05:01 10° NNW
CZ-4B R/B 4.4 22:58:05 10° NNE 23:01:06 31° ENE 23:01:06 31° ENE
Cosmos 2360 Rocket 3.0 22:59:18 10° SW 23:04:47 50° WNW 23:10:19 10° NNE
Cosmos 1844 3.6 23:04:07 10° NNW 23:09:49 75° ENE 23:10:13 71° E
Cosmos 1606 4.0 23:14:02 37° N 23:14:02 37° N 23:16:27 10° N
Cosmos 2322 4.5 23:07:18 10° SW 23:12:49 50° WNW 23:18:24 10° NNE
S3M 3.9 23:16:52 64° ESE 23:17:06 65° E 23:23:14 10° NNE
IGS 5A 4.1 23:18:47 54° NNW 23:18:47 54° NNW 23:22:03 10° NNW
Okean 2 Rocket 4.3 23:18:02 10° NNW 23:22:10 35° W 23:22:22 35° W
Cosmos 1633 4.3 23:19:11 10° N 23:21:17 32° NNW 23:21:17 32° NNW
Meteor 2-6 Rocket 4.3 23:22:10 66° SSW 23:23:02 81° W 23:29:03 10° N
Cosmos 1300 Rocket 4.5 23:22:26 10° N 23:25:30 43° NNE 23:25:30 43° NNE
ATLAS 5 CENTAUR R/B 3.7 23:23:15 10° WNW 23:28:23 29° WSW 23:29:19 28° SW
Cosmos 1782 4.1 23:29:11 38° NW 23:29:11 38° NW 23:32:23 10° N
Cosmos 2333 Rocket 2.6 23:34:09 53° ENE 23:34:09 53° ENE 23:38:46 10° NNE
Cosmos 2333 4.4 23:33:39 57° WSW 23:34:38 69° WNW 23:40:25 10° NNE
SeaSat 1 4.3 23:36:49 19° WSW 23:37:06 19° WSW 23:40:39 10° WNW
Cosmos 2237 Rocket 3.0 23:41:33 40° ENE 23:41:33 40° ENE 23:45:25 10° NE
Cosmos 1898 Rocket 4.0 23:35:37 10° NNW 23:40:05 52° NE 23:40:05 52° NE
Cosmos 2278 Rocket 2.2 23:36:35 10° NNW 23:41:58 73° NNE 23:41:58 73° NNE
Timation 1 Rocket 4.5 23:40:18 10° NNW 23:46:14 62° ENE 23:46:14 62° ENE
Terra 2.9 23:48:57 37° W 23:48:57 37° W 23:52:52 10° NNW
Cosmos 1745 Rocket 3.9 23:43:32 10° N 23:49:52 76° W 23:50:11 74° SW
Cosmos 1844 Rocket 3.5 23:45:51 10° NW 23:50:44 40° W 23:50:44 40° W
Spot 4 4.5 23:52:16 52° NW 23:52:16 52° NW 23:56:03 10° NNW
